Regional Weather Roundup
Issued by NWS

Home | Current Version | Previous Version | Text Only | Print | Product List | Glossary On
Versions: 1 2 3 4 5 6 7 8 9 10 11 12 13 14 15 16 17 18 19 20 21 22 23 24 25 26 27 28 29 30 31 32 33 34 35 36 37 38 39 40 41 42 43 44 45 46 47 48 49 50
000
ASUS43 KDMX 200401
RWRIA

WEATHER ROUNDUP FOR IOWA
NATIONAL WEATHER SERVICE DES MOINES IA
1100 PM CDT THU APR 19 2018

NOTE: "FAIR" INDICATES FEW OR NO CLOUDS BELOW 12,000 FEET WITH NO
SIGNIFICANT WEATHER AND/OR OBSTRUCTIONS TO VISIBILITY.

* - THESE STATIONS ARE NOT NWS STATIONS...THUS NOT UNDER NWS
QUALITY CONTROL.  THEY ALSO DO NOT REPORT WEATHER SUCH
AS PRECIPITATION OR FOG.

IAZ001>003-012>014-020>022-031>034-043>046-200500-
   NORTHWEST IOWA

CITY           SKY/WX    TMP DP  RH WIND       PRES   REMARKS
CARROLL *      CLEAR     34  30  86 N5        30.44R WCI  30
CHEROKEE *     CLOUDY    29  23  79 CALM      30.45S
DENISON *      CLOUDY    36  28  75 E6        30.44S WCI  31
LE MARS *      CLOUDY    34  23  64 VRB5      30.44R WCI  30
ORANGE CITY *  CLOUDY    32  27  80 E7        30.43S WCI  26
SHELDON *      CLOUDY    32  27  80 E8        30.42F WCI  25
SIOUX CITY     CLEAR     34  25  69 SE3       30.43R
SPENCER        CLOUDY    29  23  78 NE3       30.46R
STORM LAKE *   CLOUDY    30  23  74 NE8       30.44R WCI  23
$$

IAZ055>058-069>071-079>083-090>094-200500-
   SOUTHWEST IOWA

CITY           SKY/WX    TMP DP  RH WIND       PRES   REMARKS
ATLANTIC *     CLEAR     39  28  65 NE5       30.42R
AUDUBON *      CLEAR     36  28  75 CALM      30.44R
CLARINDA *       N/A     45  27  49 VRB3      30.43R
COUNCIL BLFS * CLEAR     43  28  56 E10       30.40R
CRESTON *      CLEAR     37  25  60 E8        30.43R WCI  31
HARLAN  *      CLOUDY    39  30  70 NE6       30.45R WCI  35
LAMONI         CLEAR     42  26  53 NE5       30.41R
RED OAK *      PTCLDY    43  27  52 E5        30.41R
SHENANDOAH *   PTCLDY    41  28  60 CALM      30.41R
$$

IAZ047>049-059>061-072>074-084-200500-
   CENTRAL IOWA

CITY           SKY/WX    TMP DP  RH WIND       PRES   REMARKS
AMES           CLEAR     36  26  67 NE5       30.45S WCI  32
ANKENY *       CLEAR     36  27  69 NE6       30.45S WCI  31
BOONE *        CLEAR     34  28  80 NE7       30.43S WCI  28
CHARITON *     PTCLDY    39  25  56 NE7       30.42S WCI  34
DES MOINES     CLEAR     43  26  51 NE8       30.44R
GRINNELL*      CLEAR     36  26  67 NE8       30.45S WCI  29
KNOXVILLE *    CLEAR     39  25  56 NE7       30.42S WCI  34
MARSHALLTOWN   CLEAR     33  27  78 N7        30.45S WCI  27
NEWTON *       CLEAR     37  25  60 NE7       30.44S WCI  32
PELLA *        CLEAR     38  26  60 NE5       30.45S WCI  35
$$

IAZ004>006-015-016-023>025-035-036-200500-
   NORTH CENTRAL IOWA

CITY           SKY/WX    TMP DP  RH WIND       PRES   REMARKS
ALGONA *       CLOUDY    28  23  80 CALM      30.46S
CLARION *      CLEAR     30  25  80 E5        30.46S WCI  25
ESTHERVILLE    PTCLDY    24  19  81 CALM      30.45S
FORT DODGE *   CLEAR     33  26  75 NE3       30.46S
MASON CITY     CLOUDY    27  22  81 W5        30.47S WCI  22
FOREST CITY *  FAIR      23  23 100 CALM      30.47R
WEBSTER CITY * CLEAR     34  28  80 NE6       30.44S WCI  29
IOWA FALLS *   FAIR      33  28  82 CALM      30.47R
$$

IAZ007>011-017>019-026>030-037>042-050>054-066-200500-
   NORTHEAST IOWA

CITY           SKY/WX    TMP DP  RH WIND       PRES   REMARKS
CEDAR RAPIDS   FAIR      37  26  64 N6        30.44S WCI  32
CHARLES CITY * FAIR      34  23  64 CALM      30.46S
CLINTON *      FAIR      36  27  69 NE5       30.46S WCI  32
DECORAH *      FAIR      32  21  64 CALM      30.44R
DUBUQUE        FAIR      30  23  75 CALM      30.44F
MONTICELLO *   FAIR      28  25  86 CALM      30.45S
OELWEIN *      FAIR      32  32 100 NW3       30.46R
WATERLOO       FAIR      27  23  85 CALM      30.46S
$$

IAZ064-065-067-068-078-200500-
   EAST CENTRAL IOWA

CITY           SKY/WX    TMP DP  RH WIND       PRES   REMARKS
DAVENPORT      FAIR      39  25  57 NE5       30.47S
IOWA CITY      FAIR      41  24  51 N3        30.46S
MT. PLEASANT * CLEAR     36  25  64 E8        30.44R WCI  29
MUSCATINE *    FAIR      37  25  60 N3        30.45F
QUAD CITIES    FAIR      36  28  73 CALM      30.45S
$$

IAZ062-063-075>077-085>089-095>099-200500-
   SOUTHEAST IOWA

CITY           SKY/WX    TMP DP  RH WIND       PRES   REMARKS
BURLINGTON     CLEAR     43  24  47 NE6       30.43F
FAIRFIELD *    CLEAR     37  23  56 NE7       30.43S WCI  32
FORT MADISON * CLEAR     45  27  49 E3        30.44S
KEOKUK *       CLEAR     43  23  45 E6        30.42F
OSKALOOSA *    FAIR      36  26  65 NE9       30.44S WCI  29
CENTERVILLE *    N/A     39  25  56 CALM      30.43R
OTTUMWA        CLEAR     39  24  55 NE7       30.43S WCI  34
WASHINGTON *   CLEAR     37  27  65 N7        30.45S WCI  32
$$

ABBREVIATIONS USED IN REMARKS
   TC - TEMPERATURES IN CELSIUS
  WCI - WIND CHILL INDEX
   HX - HEAT INDEX
  VSB - VISIBILITY
$$





USA.gov is the U.S. government's official web portal to all federal, state and local government web resources and services.